,,Stat6,,Stat2,,Stat8,,Stat9,,Stat10,,Wind1,,Wind1,
time,status,PA1M_AVG,status,PR1M_SUM,status,RH1M_AVG,status,SR1M_AVG,status,TA1M_AVG,status,W1dAve1m,status,W1sAve1m,
2007-09-26, 00:00:00,VALID,918.855,VALID,0,VALID,100,VALID,-0.0169808,VALID,20.374,VALID,10,VALID,0.258176,
2007-09-26, 00:01:00,VALID,918.85,VALID,0,VALID,100,VALID,0,VALID,20.3802,VALID,20,VALID,0.610491,
2007-09-26, 00:02:00,VALID,918.85,VALID,0,VALID,100,VALID,-0.0169808,VALID,20.3967,VALID,38,VALID,0.515434,
2007-09-26, 00:03:00,VALID,918.861,VALID,0,VALID,100,VALID,-0.0679233,VALID,20.4227,VALID,38,VALID,0.619792,
2007-09-26, 00:04:00,VALID,918.849,VALID,0,VALID,100,VALID,-0.0679233,VALID,20.4521,VALID,42,VALID,0.701953,
2007-09-26, 00:05:00,VALID,918.858,VALID,0,VALID,100,VALID,-0.0849042,VALID,20.4619,VALID,43,VALID,0.749092,
2007-09-26, 00:06:00,VALID,918.854,VALID,0,VALID,100,VALID,-0.0169808,VALID,20.4646,VALID,33,VALID,1.1076,
2007-09-26, 00:07:00,VALID,918.834,VALID,0,VALID,100,VALID,-0.0169808,VALID,20.4327,VALID,26,VALID,1.25033,
2007-09-26, 00:08:00,VALID,918.812,VALID,0,VALID,100,VALID,-0.0169808,VALID,20.3937,VALID,26,VALID,1.19717,
2007-09-26, 00:09:00,VALID,918.8,VALID,0,VALID,100,VALID,-0.0339617,VALID,20.3643,VALID,31,VALID,1.02782,
2007-09-26, 00:10:00,VALID,918.78,VALID,0,VALID,100,VALID,-0.0339617,VALID,20.3321,VALID,18,VALID,0.91311,
2007-09-26, 00:11:00,VALID,918.762,VALID,0,VALID,100,VALID,-0.0339617,VALID,20.3153,VALID,17,VALID,0.81686,
2007-09-26, 00:12:00,VALID,918.743,VALID,0,VALID,100,VALID,-0.0339617,VALID,20.2896,VALID,18,VALID,0.747596,
2007-09-26, 00:13:00,VALID,918.718,VALID,0,VALID,100,VALID,-0.0849042,VALID,20.2637,VALID,24,VALID,1.34585,
2007-09-26, 00:14:00,VALID,918.703,VALID,0,VALID,100,VALID,-0.0679233,VALID,20.2407,VALID,29,VALID,1.41908,
2007-09-26, 00:15:00,VALID,918.678,VALID,0,VALID,100,VALID,-0.0339617,VALID,20.208,VALID,29,VALID,1.34413,
2007-09-26, 00:16:00,VALID,918.669,VALID,0,VALID,100,VALID,-0.0509425,VALID,20.2055,VALID,31,VALID,1.06498,
2007-09-26, 00:17:00,VALID,918.64,VALID,0,VALID,100,VALID,-0.0509425,VALID,20.1663,VALID,26,VALID,1.10992,
2007-09-26, 00:18:00,VALID,918.623,VALID,0,VALID,100,VALID,-0.0339617,VALID,20.1274,VALID,21,VALID,0.89117,
2007-09-26, 00:19:00,VALID,918.619,VALID,0,VALID,100,VALID,-0.0509425,VALID,20.1306,VALID,30,VALID,0.909375,
2007-09-26, 00:20:00,VALID,918.6,VALID,0,VALID,100,VALID,-0.0509425,VALID,20.1044,VALID,27,VALID,0.973189,
2007-09-26, 00:21:00,VALID,918.588,VALID,0,VALID,100,VALID,-0.0339617,VALID,20.0749,VALID,25,VALID,0.988451,
2007-09-26, 00:22:00,VALID,918.557,VALID,0,VALID,100,VALID,-0.0339617,VALID,20.0557,VALID,25,VALID,0.656436,
2007-09-26, 00:23:00,VALID,918.545,VALID,0,VALID,100,VALID,-0.0339617,VALID,20.0365,VALID,25,VALID,1.00543,
2007-09-26, 00:24:00,VALID,918.555,VALID,0,VALID,100,VALID,-0.0339617,VALID,20.0268,VALID,30,VALID,0.84032,
2007-09-26, 00:25:00,VALID,918.567,VALID,0,VALID,100,VALID,-0.0679233,VALID,20.0238,VALID,27,VALID,0.545632,
2007-09-26, 00:26:00,VALID,918.597,VALID,0,VALID,100,VALID,-0.0169808,VALID,20.0265,VALID,27,VALID,0.136347,
2007-09-26, 00:27:00,VALID,918.61,VALID,0,VALID,100,VALID,-0.0169808,VALID,20.0557,VALID,27,VALID,0.0591518,
2007-09-26, 00:28:00,VALID,918.616,VALID,0,VALID,100,VALID,-0.0339617,VALID,20.069,VALID,27,VALID,0.244913,
2007-09-26, 00:29:00,VALID,918.61,VALID,0,VALID,100,VALID,0,VALID,20.069,VALID,26,VALID,0.331445,
2007-09-26, 00:30:00,VALID,918.593,VALID,0,VALID,100,VALID,-0.0169808,VALID,20.0787,VALID,25,VALID,0.276972,
2007-09-26, 00:31:00,VALID,918.574,VALID,0,VALID,100,VALID,-0.0339617,VALID,20.0722,VALID,25,VALID,0.243555,
2007-09-26, 00:32:00,VALID,918.526,VALID,0,VALID,100,VALID,-0.0509425,VALID,20.0752,VALID,25,VALID,0.239169,
2007-09-26, 00:33:00,VALID,918.473,VALID,0,VALID,100,VALID,0,VALID,20.0849,VALID,25,VALID,0.224382,
2007-09-26, 00:34:00,VALID,918.442,VALID,0,VALID,100,VALID,-0.0339617,VALID,20.1046,VALID,25,VALID,0.0323401,
2007-09-26, 00:35:00,VALID,918.387,VALID,0,VALID,100,VALID,-0.0849042,VALID,20.1209,VALID,25,VALID,0.102778,
2007-09-26, 00:36:00,VALID,918.35,VALID,0,VALID,100,VALID,-0.0849042,VALID,20.1306,VALID,25,VALID,0.408398,
2007-09-26, 00:37:00,VALID,918.308,VALID,0,VALID,100,VALID,0.0339617,VALID,20.152,VALID,11,VALID,0.570884,
2007-09-26, 00:38:00,VALID,918.303,VALID,0,VALID,100,VALID,0.0169808,VALID,20.1618,VALID,4,VALID,0.400343,
2007-09-26, 00:39:00,VALID,918.292,VALID,0,VALID,100,VALID,0.0509425,VALID,20.1548,VALID,9,VALID,0.31875,
2007-09-26, 00:40:00,VALID,918.288,VALID,0,VALID,100,VALID,0.101885,VALID,20.1573,VALID,9,VALID,0.152253,
2007-09-26, 00:41:00,VALID,918.285,VALID,0,VALID,100,VALID,0.0509425,VALID,20.1578,VALID,9,VALID,0.296113,
2007-09-26, 00:42:00,VALID,918.263,VALID,0,VALID,100,VALID,0.0679233,VALID,20.171,VALID,9,VALID,0.208031,
2007-09-26, 00:43:00,VALID,918.254,VALID,0,VALID,100,VALID,0.0679233,VALID,20.1548,VALID,9,VALID,0.412997,
2007-09-26, 00:44:00,VALID,918.248,VALID,0,VALID,100,VALID,0.0849042,VALID,20.158,VALID,9,VALID,0.135653,
2007-09-26, 00:45:00,VALID,918.232,VALID,0,VALID,100,VALID,0.0169808,VALID,20.181,VALID,9,VALID,0.0074314,
2007-09-26, 00:46:00,VALID,918.221,VALID,0,VALID,100,VALID,0.0509425,VALID,20.1775,VALID,9,VALID,0.0212054,
2007-09-26, 00:47:00,VALID,918.205,VALID,0,VALID,100,VALID,0.0679233,VALID,20.174,VALID,9,VALID,0,
2007-09-26, 00:48:00,VALID,918.2,VALID,0,VALID,100,VALID,0.101885,VALID,20.1772,VALID,9,VALID,0.00133384,
2007-09-26, 00:49:00,VALID,918.185,VALID,0,VALID,100,VALID,0.0509425,VALID,20.1643,VALID,9,VALID,0,
2007-09-26, 00:50:00,VALID,918.179,VALID,0,VALID,100,VALID,0.118866,VALID,20.161,VALID,9,VALID,0,
2007-09-26, 00:51:00,VALID,918.163,VALID,0,VALID,100,VALID,0.0849042,VALID,20.1575,VALID,9,VALID,0.100991,
2007-09-26, 00:52:00,VALID,918.145,VALID,0,VALID,100,VALID,0.0509425,VALID,20.1615,VALID,9,VALID,0.0783203,
2007-09-26, 00:53:00,VALID,918.148,VALID,0,VALID,100,VALID,0.0849042,VALID,20.1777,VALID,9,VALID,0,
2007-09-26, 00:54:00,VALID,918.129,VALID,0,VALID,100,VALID,0.0679233,VALID,20.1672,VALID,9,VALID,0,
2007-09-26, 00:55:00,VALID,918.156,VALID,0,VALID,100,VALID,0.101885,VALID,20.1775,VALID,326,VALID,0.199128,
2007-09-26, 00:56:00,VALID,918.171,VALID,0,VALID,100,VALID,0.0509425,VALID,20.1742,VALID,239,VALID,0.373728,
2007-09-26, 00:57:00,VALID,918.191,VALID,0,VALID,100,VALID,0.0339617,VALID,20.1543,VALID,235,VALID,0.359756,
2007-09-26, 00:58:00,VALID,918.209,VALID,0,VALID,100,VALID,0.0509425,VALID,20.144,VALID,232,VALID,0.164971,
2007-09-26, 00:59:00,VALID,918.224,VALID,0,VALID,100,VALID,0.0679233,VALID,20.1378,VALID,232,VALID,0.274132,
2007-09-26, 01:00:00,VALID,918.252,VALID,0,VALID,100,VALID,0.101885,VALID,20.1443,VALID,231,VALID,0.337028,
2007-09-26, 01:01:00,VALID,918.263,VALID,0,VALID,100,VALID,0.0849042,VALID,20.148,VALID,225,VALID,0.466388,
2007-09-26, 01:02:00,VALID,918.266,VALID,0,VALID,100,VALID,0.0509425,VALID,20.1318,VALID,203,VALID,0.534268,
2007-09-26, 01:03:00,VALID,918.282,VALID,0,VALID,100,VALID,0.0849042,VALID,20.1356,VALID,207,VALID,0.414435,
2007-09-26, 01:04:00,VALID,918.307,VALID,0,VALID,100,VALID,0.0509425,VALID,20.1348,VALID,200,VALID,0.659299,
2007-09-26, 01:05:00,VALID,918.326,VALID,0,VALID,100,VALID,0.0509425,VALID,20.1421,VALID,183,VALID,0.940168,
2007-09-26, 01:06:00,VALID,918.346,VALID,0,VALID,100,VALID,0.0679233,VALID,20.1356,VALID,189,VALID,0.807575,
2007-09-26, 01:07:00,VALID,918.369,VALID,0,VALID,100,VALID,-0.101885,VALID,20.1341,VALID,195,VALID,0.706555,
2007-09-26, 01:08:00,VALID,918.383,VALID,0,VALID,100,VALID,-0.0339617,VALID,20.1301,VALID,193,VALID,0.502418,
2007-09-26, 01:09:00,VALID,918.408,VALID,0,VALID,100,VALID,0,VALID,20.1466,VALID,195,VALID,0.459872,
2007-09-26, 01:10:00,VALID,918.418,VALID,0,VALID,100,VALID,-0.0849042,VALID,20.1463,VALID,213,VALID,0.597396,
2007-09-26, 01:11:00,VALID,918.414,VALID,0,VALID,100,VALID,-0.0509425,VALID,20.1631,VALID,223,VALID,0.635861,
2007-09-26, 01:12:00,VALID,918.406,VALID,0,VALID,100,VALID,-0.0509425,VALID,20.1728,VALID,225,VALID,0.595312,
2007-09-26, 01:13:00,VALID,918.387,VALID,0,VALID,100,VALID,-0.0509425,VALID,20.1758,VALID,210,VALID,0.632612,
2007-09-26, 01:14:00,VALID,918.363,VALID,0,VALID,100,VALID,-0.0679233,VALID,20.1958,VALID,205,VALID,0.5,
2007-09-26, 01:15:00,VALID,918.352,VALID,0,VALID,100,VALID,-0.0679233,VALID,20.2052,VALID,201,VALID,0.436928,
2007-09-26, 01:16:00,VALID,918.347,VALID,0,VALID,100,VALID,-0.101885,VALID,20.215,VALID,195,VALID,0.493712,
2007-09-26, 01:17:00,VALID,918.347,VALID,0,VALID,100,VALID,-0.0679233,VALID,20.2055,VALID,191,VALID,0.60032,
2007-09-26, 01:18:00,VALID,918.355,VALID,0,VALID,100,VALID,-0.0509425,VALID,20.2015,VALID,191,VALID,0.275923,
2007-09-26, 01:19:00,VALID,918.344,VALID,0,VALID,100,VALID,-0.101885,VALID,20.2023,VALID,135,VALID,0.515811,
2007-09-26, 01:20:00,VALID,918.313,VALID,0,VALID,100,VALID,-0.0679233,VALID,20.1928,VALID,98,VALID,0.761285,
2007-09-26, 01:21:00,VALID,918.282,VALID,0,VALID,100,VALID,-0.0679233,VALID,20.179,VALID,95,VALID,0.662609,
2007-09-26, 01:22:00,VALID,918.23,VALID,0,VALID,100,VALID,-0.0509425,VALID,20.1925,VALID,83,VALID,0.682813,
2007-09-26, 01:23:00,VALID,918.167,VALID,0,VALID,100,VALID,-0.0339617,VALID,20.1823,VALID,73,VALID,0.767401,
2007-09-26, 01:24:00,VALID,918.107,VALID,0,VALID,100,VALID,-0.0509425,VALID,20.186,VALID,66,VALID,0.861235,
2007-09-26, 01:25:00,VALID,918.081,VALID,0,VALID,100,VALID,-0.0169808,VALID,20.1728,VALID,62,VALID,0.588914,
2007-09-26, 01:26:00,VALID,918.053,VALID,0,VALID,100,VALID,-0.0509425,VALID,20.1666,VALID,61,VALID,0.388338,
2007-09-26, 01:27:00,VALID,918.062,VALID,0,VALID,100,VALID,-0.0679233,VALID,20.1666,VALID,61,VALID,0.257241,
2007-09-26, 01:28:00,VALID,918.063,VALID,0,VALID,100,VALID,-0.0679233,VALID,20.1628,VALID,61,VALID,0.15516,
2007-09-26, 01:29:00,VALID,918.071,VALID,0,VALID,100,VALID,-0.0339617,VALID,20.1795,VALID,61,VALID,0.285689,
2007-09-26, 01:30:00,VALID,918.087,VALID,0,VALID,100,VALID,-0.0339617,VALID,20.1728,VALID,60,VALID,0.59561,
2007-09-26, 01:31:00,VALID,918.082,VALID,0,VALID,100,VALID,-0.0339617,VALID,20.1663,VALID,49,VALID,0.715732,
2007-09-26, 01:32:00,VALID,918.062,VALID,0,VALID,100,VALID,-0.0509425,VALID,20.1401,VALID,41,VALID,0.998828,
2007-09-26, 01:33:00,VALID,918.051,VALID,0,VALID,100,VALID,-0.0679233,VALID,20.1081,VALID,22,VALID,0.9133,
2007-09-26, 01:34:00,VALID,918.031,VALID,0,VALID,100,VALID,-0.0169808,VALID,20.0779,VALID,34,VALID,0.989099,
2007-09-26, 01:35:00,VALID,918.027,VALID,0,VALID,100,VALID,-0.0679233,VALID,20.0725,VALID,38,VALID,1.11111,
2007-09-26, 01:36:00,VALID,918.037,VALID,0,VALID,100,VALID,-0.0509425,VALID,20.0465,VALID,45,VALID,1.18259,
2007-09-26, 01:37:00,VALID,918.046,VALID,0,VALID,100,VALID,-0.0849042,VALID,20.0303,VALID,39,VALID,1.12863,
2007-09-26, 01:38:00,VALID,918.062,VALID,0,VALID,100,VALID,-0.0679233,VALID,20.0008,VALID,38,VALID,1.01363,
2007-09-26, 01:39:00,VALID,918.058,VALID,0,VALID,100,VALID,-0.101885,VALID,19.9913,VALID,38,VALID,1.04922,
2007-09-26, 01:40:00,VALID,918.055,VALID,0,VALID,100,VALID,-0.0509425,VALID,19.9549,VALID,37,VALID,0.942827,
2007-09-26, 01:41:00,VALID,918.021,VALID,0,VALID,100,VALID,-0.0849042,VALID,19.9389,VALID,28,VALID,0.748884,
2007-09-26, 01:42:00,VALID,917.979,VALID,0,VALID,100,VALID,-0.0509425,VALID,19.9359,VALID,46,VALID,0.783975,
2007-09-26, 01:43:00,VALID,917.946,VALID,0,VALID,100,VALID,-0.0679233,VALID,19.9137,VALID,35,VALID,0.587358,
2007-09-26, 01:44:00,VALID,917.921,VALID,0,VALID,100,VALID,-0.0679233,VALID,19.9102,VALID,35,VALID,0.0828488,
2007-09-26, 01:45:00,VALID,917.909,VALID,0,VALID,100,VALID,-0.0339617,VALID,19.9062,VALID,35,VALID,0,
2007-09-26, 01:46:00,VALID,917.932,VALID,0,VALID,100,VALID,-0.0679233,VALID,19.9259,VALID,35,VALID,0,
2007-09-26, 01:47:00,VALID,917.941,VALID,0,VALID,100,VALID,-0.0509425,VALID,19.9219,VALID,35,VALID,0,
2007-09-26, 01:48:00,VALID,917.964,VALID,0,VALID,100,VALID,-0.0169808,VALID,19.9319,VALID,35,VALID,0,
2007-09-26, 01:49:00,VALID,917.98,VALID,0,VALID,100,VALID,-0.0339617,VALID,19.9354,VALID,49,VALID,0.0850497,
2007-09-26, 01:50:00,VALID,917.973,VALID,0,VALID,100,VALID,-0.0169808,VALID,19.9349,VALID,104,VALID,0.46657,
2007-09-26, 01:51:00,VALID,917.955,VALID,0,VALID,100,VALID,-0.0339617,VALID,19.9389,VALID,104,VALID,0.494474,
2007-09-26, 01:52:00,VALID,917.956,VALID,0,VALID,100,VALID,-0.0169808,VALID,19.9292,VALID,110,VALID,0.527902,
2007-09-26, 01:53:00,VALID,917.942,VALID,0,VALID,100,VALID,0,VALID,19.9092,VALID,149,VALID,0.522852,
2007-09-26, 01:54:00,VALID,917.913,VALID,0,VALID,100,VALID,-0.0339617,VALID,19.903,VALID,169,VALID,0.602325,
2007-09-26, 01:55:00,VALID,917.921,VALID,0,VALID,100,VALID,-0.0169808,VALID,19.883,VALID,169,VALID,0.618862,
2007-09-26, 01:56:00,VALID,917.929,VALID,0,VALID,100,VALID,-0.0169808,VALID,19.8935,VALID,169,VALID,0.340774,
2007-09-26, 01:57:00,VALID,917.94,VALID,0,VALID,100,VALID,-0.0169808,VALID,19.883,VALID,169,VALID,0.470465,
2007-09-26, 01:58:00,VALID,917.95,VALID,0,VALID,100,VALID,-0.0169808,VALID,19.8867,VALID,169,VALID,0.415206,
2007-09-26, 01:59:00,VALID,917.953,VALID,0,VALID,100,VALID,0,VALID,19.874,VALID,165,VALID,0.514323,
2007-09-26, 02:00:00,VALID,917.932,VALID,0,VALID,100,VALID,-0.0169808,VALID,19.8708,VALID,153,VALID,0.328526,
2007-09-26, 02:01:00,VALID,917.907,VALID,0,VALID,100,VALID,-0.0509425,VALID,19.8575,VALID,153,VALID,0.0710069,
2007-09-26, 02:02:00,VALID,917.887,VALID,0,VALID,100,VALID,-0.0509425,VALID,19.8446,VALID,153,VALID,0,
2007-09-26, 02:03:00,VALID,917.869,VALID,0,VALID,100,VALID,-0.0169808,VALID,19.874,VALID,153,VALID,0,
2007-09-26, 02:04:00,VALID,917.864,VALID,0,VALID,100,VALID,-0.0169808,VALID,19.8803,VALID,153,VALID,0,
2007-09-26, 02:05:00,VALID,917.874,VALID,0,VALID,100,VALID,-0.0169808,VALID,19.9065,VALID,153,VALID,0,
2007-09-26, 02:06:00,VALID,917.887,VALID,0,VALID,100,VALID,0,VALID,19.9259,VALID,153,VALID,0,
2007-09-26, 02:07:00,VALID,917.908,VALID,0,VALID,100,VALID,-0.0169808,VALID,19.9227,VALID,153,VALID,0,
2007-09-26, 02:08:00,VALID,917.931,VALID,0,VALID,100,VALID,-0.0169808,VALID,19.9294,VALID,153,VALID,0,
2007-09-26, 02:09:00,VALID,917.952,VALID,0,VALID,100,VALID,-0.0169808,VALID,19.9157,VALID,153,VALID,0,
2007-09-26, 02:10:00,VALID,917.965,VALID,0,VALID,100,VALID,-0.0169808,VALID,19.9222,VALID,153,VALID,0,
2007-09-26, 02:11:00,VALID,917.951,VALID,0,VALID,100,VALID,-0.0169808,VALID,19.9224,VALID,153,VALID,0.000186012,
2007-09-26, 02:12:00,VALID,917.941,VALID,0,VALID,100,VALID,-0.0339617,VALID,19.9324,VALID,153,VALID,0.00114329,
2007-09-26, 02:13:00,VALID,917.908,VALID,0,VALID,100,VALID,-0.0339617,VALID,19.9254,VALID,153,VALID,0,
2007-09-26, 02:14:00,VALID,917.89,VALID,0,VALID,100,VALID,0,VALID,19.9157,VALID,153,VALID,0,
2007-09-26, 02:15:00,VALID,917.869,VALID,0,VALID,100,VALID,-0.0169808,VALID,19.9259,VALID,153,VALID,0,
2007-09-26, 02:16:00,VALID,917.852,VALID,0,VALID,100,VALID,-0.0339617,VALID,19.9092,VALID,153,VALID,0,
2007-09-26, 02:17:00,VALID,917.844,VALID,0,VALID,100,VALID,0,VALID,19.9055,VALID,153,VALID,0,
2007-09-26, 02:18:00,VALID,917.83,VALID,0,VALID,100,VALID,0,VALID,19.8962,VALID,153,VALID,0,
2007-09-26, 02:19:00,VALID,917.83,VALID,0,VALID,100,VALID,-0.0339617,VALID,19.8865,VALID,153,VALID,0,
2007-09-26, 02:20:00,VALID,917.841,VALID,0,VALID,100,VALID,-0.0169808,VALID,19.8608,VALID,153,VALID,0.00508721,
2007-09-26, 02:21:00,VALID,917.825,VALID,0,VALID,100,VALID,0,VALID,19.8443,VALID,153,VALID,0.0485102,
2007-09-26, 02:22:00,VALID,917.843,VALID,0,VALID,100,VALID,-0.0169808,VALID,19.8246,VALID,153,VALID,0.015625,
2007-09-26, 02:23:00,VALID,917.825,VALID,0,VALID,100,VALID,-0.0169808,VALID,19.8311,VALID,153,VALID,0.286204,
2007-09-26, 02:24:00,VALID,917.831,VALID,0,VALID,100,VALID,-0.0169808,VALID,19.8448,VALID,153,VALID,0.0945122,
2007-09-26, 02:25:00,VALID,917.82,VALID,0,VALID,100,VALID,-0.0169808,VALID,19.8481,VALID,153,VALID,0.0323933,
2007-09-26, 02:26:00,VALID,917.801,VALID,0,VALID,100,VALID,-0.0339617,VALID,19.8476,VALID,153,VALID,0,
2007-09-26, 02:27:00,VALID,917.782,VALID,0,VALID,100,VALID,0,VALID,19.8708,VALID,153,VALID,0,
2007-09-26, 02:28:00,VALID,917.764,VALID,0,VALID,100,VALID,-0.0339617,VALID,19.8638,VALID,153,VALID,0,
2007-09-26, 02:29:00,VALID,917.766,VALID,0,VALID,100,VALID,0,VALID,19.8837,VALID,153,VALID,0,
2007-09-26, 02:30:00,VALID,917.778,VALID,0,VALID,100,VALID,-0.0169808,VALID,19.8698,VALID,153,VALID,0,
2007-09-26, 02:31:00,VALID,917.786,VALID,0,VALID,100,VALID,-0.0339617,VALID,19.8897,VALID,153,VALID,0,
2007-09-26, 02:32:00,VALID,917.804,VALID,0,VALID,100,VALID,-0.0169808,VALID,19.8935,VALID,154,VALID,0.140262,
2007-09-26, 02:33:00,VALID,917.815,VALID,0,VALID,100,VALID,0,VALID,19.88,VALID,155,VALID,0.270833,
2007-09-26, 02:34:00,VALID,917.809,VALID,0,VALID,100,VALID,0,VALID,19.887,VALID,155,VALID,0.0537791,
2007-09-26, 02:35:00,VALID,917.815,VALID,0,VALID,100,VALID,-0.0679233,VALID,19.9002,VALID,155,VALID,0,
2007-09-26, 02:36:00,VALID,917.808,VALID,0,VALID,100,VALID,0,VALID,19.9032,VALID,155,VALID,0.020633,
2007-09-26, 02:37:00,VALID,917.799,VALID,0,VALID,100,VALID,-0.0509425,VALID,19.896,VALID,132,VALID,0.129464,
2007-09-26, 02:38:00,VALID,917.798,VALID,0,VALID,100,VALID,-0.0169808,VALID,19.9197,VALID,118,VALID,0.0783067,
2007-09-26, 02:39:00,VALID,917.782,VALID,0,VALID,100,VALID,0,VALID,19.9294,VALID,118,VALID,0.109028,
2007-09-26, 02:40:00,VALID,917.779,VALID,0,VALID,100,VALID,-0.0339617,VALID,19.9419,VALID,118,VALID,0.0162109,
2007-09-26, 02:41:00,VALID,917.755,VALID,0,VALID,100,VALID,-0.0509425,VALID,19.9551,VALID,118,VALID,0,
2007-09-26, 02:42:00,VALID,917.733,VALID,0,VALID,100,VALID,-0.0679233,VALID,19.9222,VALID,118,VALID,0,
2007-09-26, 02:43:00,VALID,917.71,VALID,0,VALID,100,VALID,-0.0339617,VALID,19.9192,VALID,118,VALID,0,
2007-09-26, 02:44:00,VALID,917.692,VALID,0,VALID,100,VALID,-0.0679233,VALID,19.9194,VALID,118,VALID,0,
2007-09-26, 02:45:00,VALID,917.687,VALID,0,VALID,100,VALID,-0.0509425,VALID,19.9157,VALID,118,VALID,0.00285823,
2007-09-26, 02:46:00,VALID,917.674,VALID,0,VALID,100,VALID,-0.0169808,VALID,19.913,VALID,118,VALID,0.228225,
2007-09-26, 02:47:00,VALID,917.675,VALID,0,VALID,100,VALID,-0.0339617,VALID,19.9167,VALID,118,VALID,0.167411,
2007-09-26, 02:48:00,VALID,917.678,VALID,0,VALID,100,VALID,-0.0679233,VALID,19.9197,VALID,118,VALID,0.277798,
2007-09-26, 02:49:00,VALID,917.668,VALID,0,VALID,100,VALID,-0.0509425,VALID,19.9329,VALID,106,VALID,0.334162,
2007-09-26, 02:50:00,VALID,917.663,VALID,0,VALID,100,VALID,-0.0509425,VALID,19.9357,VALID,54,VALID,0.528088,
2007-09-26, 02:51:00,VALID,917.671,VALID,0,VALID,100,VALID,-0.0509425,VALID,19.9486,VALID,45,VALID,0.856213,
2007-09-26, 02:52:00,VALID,917.673,VALID,0,VALID,100,VALID,-0.0509425,VALID,19.9387,VALID,40,VALID,0.676417,
2007-09-26, 02:53:00,VALID,917.685,VALID,0,VALID,100,VALID,-0.0509425,VALID,19.9319,VALID,40,VALID,0.651042,
2007-09-26, 02:54:00,VALID,917.69,VALID,0,VALID,100,VALID,-0.0339617,VALID,19.9489,VALID,39,VALID,0.565972,
2007-09-26, 02:55:00,VALID,917.686,VALID,0,VALID,100,VALID,-0.0169808,VALID,19.9486,VALID,23,VALID,0.623326,
2007-09-26, 02:56:00,VALID,917.681,VALID,0,VALID,100,VALID,-0.0339617,VALID,19.9419,VALID,27,VALID,0.646391,
2007-09-26, 02:57:00,VALID,917.688,VALID,0,VALID,100,VALID,-0.0509425,VALID,19.9521,VALID,30,VALID,0.635174,
2007-09-26, 02:58:00,VALID,917.668,VALID,0,VALID,100,VALID,-0.0509425,VALID,19.9554,VALID,30,VALID,0.542874,
2007-09-26, 02:59:00,VALID,917.65,VALID,0,VALID,100,VALID,-0.0169808,VALID,19.9711,VALID,30,VALID,0.518229,
2007-09-26, 03:00:00,VALID,917.628,VALID,0,VALID,100,VALID,-0.0509425,VALID,19.9878,VALID,30,VALID,0.6337,
2007-09-26, 03:01:00,VALID,917.613,VALID,0,VALID,100,VALID,-0.0509425,VALID,19.9871,VALID,30,VALID,0.42133,
2007-09-26, 03:02:00,VALID,917.616,VALID,0,VALID,100,VALID,-0.0169808,VALID,19.9973,VALID,30,VALID,0.232195,
2007-09-26, 03:03:00,VALID,917.604,VALID,0,VALID,100,VALID,0,VALID,19.9933,VALID,30,VALID,0.188953,
2007-09-26, 03:04:00,VALID,917.597,VALID,0,VALID,100,VALID,-0.0339617,VALID,20.01,VALID,30,VALID,0.591704,
2007-09-26, 03:05:00,VALID,917.6,VALID,0,VALID,100,VALID,-0.0169808,VALID,20.0198,VALID,30,VALID,0.118075,
2007-09-26, 03:06:00,VALID,917.595,VALID,0,VALID,100,VALID,-0.0169808,VALID,19.9966,VALID,30,VALID,0.722384,
2007-09-26, 03:07:00,VALID,917.596,VALID,0,VALID,100,VALID,-0.0509425,VALID,20.0001,VALID,31,VALID,0.854911,
2007-09-26, 03:08:00,VALID,917.585,VALID,0,VALID,100,VALID,-0.0339617,VALID,19.9973,VALID,33,VALID,0.963605,
2007-09-26, 03:09:00,VALID,917.59,VALID,0,VALID,100,VALID,-0.0679233,VALID,19.9843,VALID,22,VALID,0.968564,
2007-09-26, 03:10:00,VALID,917.593,VALID,0,VALID,100,VALID,-0.0679233,VALID,19.9451,VALID,24,VALID,1.00963,
2007-09-26, 03:11:00,VALID,917.584,VALID,0,VALID,100,VALID,-0.0509425,VALID,19.9089,VALID,19,VALID,1.27024,
2007-09-26, 03:12:00,VALID,917.569,VALID,0,VALID,100,VALID,-0.0339617,VALID,19.8733,VALID,25,VALID,0.960598,
2007-09-26, 03:13:00,VALID,917.571,VALID,0,VALID,100,VALID,-0.0509425,VALID,19.88,VALID,14,VALID,0.881815,
2007-09-26, 03:14:00,VALID,917.564,VALID,0,VALID,100,VALID,-0.0339617,VALID,19.8578,VALID,11,VALID,0.721168,
2007-09-26, 03:15:00,VALID,917.551,VALID,0,VALID,100,VALID,-0.0679233,VALID,19.8516,VALID,17,VALID,0.783854,
2007-09-26, 03:16:00,VALID,917.553,VALID,0,VALID,100,VALID,-0.0509425,VALID,19.8386,VALID,17,VALID,0.764236,
2007-09-26, 03:17:00,VALID,917.563,VALID,0,VALID,100,VALID,-0.0339617,VALID,19.8086,VALID,33,VALID,1.2013,
2007-09-26, 03:18:00,VALID,917.562,VALID,0,VALID,100,VALID,-0.0509425,VALID,19.8026,VALID,27,VALID,0.946456,
2007-09-26, 03:19:00,VALID,917.561,VALID,0,VALID,100,VALID,-0.0509425,VALID,19.7991,VALID,26,VALID,1.20461,
2007-09-26, 03:20:00,VALID,917.558,VALID,0,VALID,100,VALID,-0.0339617,VALID,19.7991,VALID,35,VALID,1.02883,
2007-09-26, 03:21:00,VALID,917.553,VALID,0,VALID,100,VALID,-0.0169808,VALID,19.7989,VALID,34,VALID,0.816907,
2007-09-26, 03:22:00,VALID,917.549,VALID,0,VALID,100,VALID,-0.0169808,VALID,19.7799,VALID,26,VALID,1.06777,
2007-09-26, 03:23:00,VALID,917.544,VALID,0,VALID,100,VALID,-0.0169808,VALID,19.7729,VALID,30,VALID,1.5069,
2007-09-26, 03:24:00,VALID,917.517,VALID,0,VALID,100,VALID,-0.0509425,VALID,19.7797,VALID,27,VALID,1.56836,
2007-09-26, 03:25:00,VALID,917.493,VALID,0,VALID,100,VALID,-0.0509425,VALID,19.7859,VALID,24,VALID,1.50763,
2007-09-26, 03:26:00,VALID,917.477,VALID,0,VALID,100,VALID,0,VALID,19.7694,VALID,31,VALID,1.02889,
2007-09-26, 03:27:00,VALID,917.458,VALID,0,VALID,100,VALID,0,VALID,19.7697,VALID,26,VALID,0.790587,
2007-09-26, 03:28:00,VALID,917.444,VALID,0,VALID,100,VALID,0.0169808,VALID,19.7467,VALID,20,VALID,0.786882,
2007-09-26, 03:29:00,VALID,917.437,VALID,0,VALID,100,VALID,-0.0679233,VALID,19.76,VALID,21,VALID,0.339063,
2007-09-26, 03:30:00,VALID,917.42,VALID,0,VALID,100,VALID,0,VALID,19.7862,VALID,35,VALID,1.07776,
2007-09-26, 03:31:00,VALID,917.419,VALID,0,VALID,100,VALID,-0.0339617,VALID,19.7757,VALID,34,VALID,0.779297,
2007-09-26, 03:32:00,VALID,917.404,VALID,0,VALID,100,VALID,-0.0169808,VALID,19.8091,VALID,28,VALID,1.0709,
2007-09-26, 03:33:00,VALID,917.404,VALID,0,VALID,100,VALID,-0.0339617,VALID,19.7897,VALID,14,VALID,0.894886,
2007-09-26, 03:34:00,VALID,917.404,VALID,0,VALID,100,VALID,-0.0169808,VALID,19.7899,VALID,2,VALID,0.419969,
2007-09-26, 03:35:00,VALID,917.414,VALID,0,VALID,100,VALID,-0.0169808,VALID,19.7799,VALID,5,VALID,0.289249,
2007-09-26, 03:36:00,VALID,917.43,VALID,0,VALID,100,VALID,-0.0849042,VALID,19.8094,VALID,10,VALID,0,
2007-09-26, 03:37:00,VALID,917.449,VALID,0,VALID,100,VALID,0.0679233,VALID,19.8273,VALID,10,VALID,0,
2007-09-26, 03:38:00,VALID,917.478,VALID,0,VALID,100,VALID,0.101885,VALID,19.8428,VALID,10,VALID,0.0850291,
2007-09-26, 03:39:00,VALID,917.494,VALID,0,VALID,100,VALID,0.101885,VALID,19.8428,VALID,10,VALID,0.0117188,
2007-09-26, 03:40:00,VALID,917.519,VALID,0,VALID,100,VALID,0.101885,VALID,19.8328,VALID,10,VALID,0,
2007-09-26, 03:41:00,VALID,917.539,VALID,0,VALID,100,VALID,0.101885,VALID,19.8331,VALID,10,VALID,0.000363372,
2007-09-26, 03:42:00,VALID,917.546,VALID,0,VALID,100,VALID,0.101885,VALID,19.8401,VALID,10,VALID,0.103659,